Горбачёво-Михайловка

Украина / Донецкая область     47°51′08″N   38°00′38″E
темп.,
°C
ветер,
м/с
пор.,
м/с
влажн.,
%
обл.,
%
осадки,
мм/ч
давл.,
гПа
погр.,
м
14 июня, пн
пн1400:00+16ю2289100 0.0 101111
03:00+15ю22925 0.0 101111
06:00+17юв229134 0.0 101285
09:00+21ююв3474100 0.0 1012758
12:00+24ююв3456100 0.0 10131620
15:00+26юв234717 0.0 10122179
18:00+23всв346595 0.0 101269
21:00+20всв237026 0.0 101223
15 июня, вт
вт1500:00+20св237089 0.1 101238
03:00+19св357397 0.1 101196
06:00+18св38837 0.0 1011165
09:00+22св357392 0.1 1011277
12:00+26всв3454100 0.1 10101253
15:00+26ююв335678 0.1 1009767
18:00+18юз5894100 3.0 1010163
21:00+17ссз228913 8.8 101017
16 июня, ср
ср1600:00+17всв12904 0.3 100911
03:00+17всв11870 0.3 100911
06:00+18всв238699 0.1 101081
09:00+23всв3474100 0.1 1010528
12:00+26в346289 0.2 10101290
15:00+27в5659100 1.4 10081494
18:00+18ссв91294100 37.9 1009519
21:00+17св101790100 59.6 1011467
17 июня, чт
чт1700:00+17всв615910 0.1 1010358
03:00+17всв412950 0.1 1011304
06:00+18св21293100 0.0 1012463
09:00+21всв51185100 0.4 1012733
12:00+23св5883100 0.1 1013681
15:00+20в3592100 7.7 1014113
18:00+19ю3497100 9.3 1014189
21:00+17в2298100 23.8 1016104
18 июня, пт
пт1800:00+17всв3599100 4.4 1016178
03:00+18с3698100 18.9 1016293
06:00+18вюв589796 0.4 1018442
09:00+18в5893100 0.4 1019584
12:00+19в6877100 0.0 1020708
15:00+22всв696470 0.0 10201276
18:00+21всв597310 0.0 1020814
21:00+17св413825 0.0 1021300